Temperature
13 13 13 13 13 13 13 13 13 13 12 12 12 12 12 12 12 12 12 12 12 11 11 11 11 11 11 11 11 11 11 11 11 11 11 11 11 11 11 11 11 11 11
13 13 13 13 13 13 13 12 12 12 12 12 12 12 12 11 11 11 11 11 11 11 11 11 11 11 11 10 10 11 11 11 11 11 11 11 11 11 10 10 10 10 10
13 12 12 12 12 12 12 12 12 12 12 11 11 11 11 11 11 11 11 10 11 11 11 10 10 10 10 10 10 10 10 10 10 10 10 10 10 10 10 10 10 9 9
12 12 12 12 12 12 12 11 11 11 11 11 11 11 11 11 10 10 10 10 10 10 10 10 10 10 10 10 10 10 10 10 9 9 9 9 9 9 9 9 9 9 9
12 12 12 11 11 11 11 11 11 11 11 11 11 10 10 10 10 10 10 10 10 9 9 9 9 9 9 9 9 9 9 9 9 9 9 9 9 9 9 8 8 8 8
11 11 11 11 11 11 11 10 10 10 10 10 10 10 10 10 10 9 9 9 9 9 9 9 9 9 8 8 8 8 8 8 8 8 8 8 8 8 8 8 8 8 8
11 11 11 11 10 10 10 10 10 10 10 9 10 10 9 9 9 9 9 9 8 8 8 8 8 8 8 8 8 8 8 8 8 7 7 7 7 7 7 7 7 7 7
11 11 11 10 10 10 10 10 10 9 9 9 8 8 8 8 9 9 8 8 8 8 8 8 8 8 8 8 8 7 7 7 7 7 7 7 7 7 7 7 6 7 7
10 10 10 10 10 10 9 9 9 9 9 8 8 8 7 7 7 8 8 8 7 7 7 7 7 7 7 7 7 7 7 6 6 6 6 6 6 6 6 6 6 6 6
10 10 10 10 10 9 9 9 9 9 8 8 8 7 7 6 6 6 7 7 7 7 7 7 7 7 7 6 6 6 6 6 6 6 5 5 6 6 5 5 6 6 6
10 9 9 9 9 9 9 9 9 8 8 8 7 7 7 6 6 6 6 6 7 7 6 6 6 6 6 6 6 6 6 5 5 5 5 5 5 5 5 5 5 5 5
9 9 9 9 9 9 9 8 8 8 8 7 7 7 6 6 6 5 5 5 6 6 6 6 6 5 5 5 5 5 5 5 5 4 4 4 4 4 4 5 5 5 5
9 9 9 9 9 8 8 8 8 8 7 7 7 6 6 6 6 5 5 5 5 5 5 5 5 5 5 5 5 4 4 4 4 4 4 4 4 4 4 4 4 4 4
9 9 8 8 8 8 8 8 8 7 7 7 6 6 6 6 5 5 5 4 4 4 4 4 5 4 4 4 4 4 4 3 3 3 3 3 3 3 4 4 4 4 4
8 8 8 8 8 8 8 7 7 7 7 6 6 6 5 5 5 5 4 4 3 3 3 4 4 4 3 3 3 3 3 3 3 3 3 3 3 3 3 3 3 3 3
8 8 8 8 7 7 7 7 7 7 6 6 6 6 5 5 5 5 4 4 3 3 2 3 3 3 3 3 2 2 2 2 2 2 2 2 2 3 3 3 3 3 3
7 7 7 7 7 7 7 7 6 6 6 6 6 5 5 5 5 4 4 4 3 3 2 3 3 3 2 2 2 2 2 2 2 2 2 2 2 2 2 2 3 3 3
7 7 7 7 7 7 6 6 6 6 6 5 5 5 5 4 4 4 4 3 3 3 2 2 2 2 2 2 2 2 2 2 2 2 2 2 2 2 2 2 2 2 2
6 6 6 6 6 6 6 6 6 5 5 5 5 5 4 4 4 4 3 3 3 2 2 1 1 1 1 1 1 1 1 1 1 1 1 1 2 2 1 2 2 2 2
6 6 6 6 6 6 6 5 5 5 5 5 4 4 4 4 3 3 3 2 2 2 1 1 1 1 1 1 0 0 1 1 1 1 1 1 1 1 1 1 1 1 1
6 6 6 5 5 5 5 5 5 5 5 4 4 4 4 3 3 2 2 2 2 1 1 1 0 0 0 0 -0 -0 -0 0 0 0 1 1 1 1 1 1 1 1 1
5 5 5 5 5 5 5 4 4 4 4 4 4 4 3 3 2 2 2 2 1 1 0 0 -0 -0 -0 -0 -0 -1 -1 -1 -0 -0 -0 1 1 1 1 0 1 1 0
5 4 4 4 4 4 4 4 4 4 4 3 3 3 3 2 2 2 2 1 1 1 0 -0 -0 -1 -1 -1 -1 -1 -1 -1 -1 -1 -1 0 0 0 0 0 0 0 0
4 4 4 4 4 4 4 4 3 3 3 3 3 2 2 2 2 1 1 1 1 1 0 -0 -1 -1 -1 -1 -1 -1 -1 -1 -1 -1 -1 -1 -0 -0 0 0 -0 -0 -0
4 3 3 3 3 3 3 3 3 3 3 2 2 2 2 1 1 1 1 1 1 1 0 -0 -1 -1 -1 -1 -1 -1 -1 -1 -1 -1 -1 -2 -1 -1 -0 -0 -0 -0 -0
3 3 3 3 3 3 3 2 2 2 2 2 2 2 1 1 1 1 0 0 0 0 0 -0 -0 -1 -1 -1 -1 -1 -2 -2 -2 -2 -2 -2 -2 -2 -1 -1 -0 -0 -0
Wind_Speed
3 3 3 4 4 4 3 3 3 3 3 4 4 4 4 4 4 4 3 4 4 4 6 7 8 8 9 9 10 10 11 11 12 12 12 12 13 13 14 14 14 15 15
4 3 3 3 4 4 4 3 3 3 2 3 3 4 4 4 5 4 4 4 4 4 6 7 8 9 10 10 11 11 12 12 13 13 13 13 13 14 14 14 15 16 16
5 4 3 3 3 4 4 4 3 3 2 2 3 3 4 4 4 4 4 3 4 5 6 7 9 9 10 11 12 12 13 13 13 13 13 14 14 15 15 15 16 16 17
6 5 3 3 3 3 3 2 2 2 2 2 2 2 2 2 3 3 4 4 4 4 5 7 8 10 10 11 12 13 13 14 14 15 15 15 15 16 16 16 16 17 17
6 5 3 3 3 3 2 2 2 2 2 3 2 2 2 2 1 2 3 3 4 4 5 6 8 9 10 11 13 14 14 14 15 16 16 16 16 17 17 17 17 17 18
6 5 4 3 3 2 2 2 2 2 2 2 2 2 2 1 1 1 2 3 3 4 5 6 6 8 9 11 13 14 15 15 15 16 16 16 16 17 18 18 18 18 19
5 5 3 3 2 2 2 2 2 2 2 2 2 2 2 1 1 1 2 2 3 4 5 6 6 7 8 11 12 14 15 16 16 16 16 16 17 17 17 17 17 18 19
5 4 4 2 2 2 2 2 2 1 2 2 2 1 2 3 3 2 2 2 2 3 4 6 7 7 8 8 10 14 15 16 17 17 17 17 17 18 18 18 18 18 19
5 4 4 3 2 2 2 1 1 2 1 2 2 2 1 1 3 3 2 2 3 3 4 5 6 8 9 9 9 11 14 16 18 19 19 18 18 18 18 18 18 18 19
5 5 4 3 2 2 2 1 1 1 1 0 1 1 0 1 1 3 3 3 4 4 4 5 5 7 8 9 10 13 15 17 18 19 19 19 19 19 18 18 18 19 19
5 5 4 3 2 2 2 1 1 1 1 1 0 1 1 2 1 2 4 4 4 4 3 4 4 5 7 8 9 12 16 17 18 19 19 19 19 19 19 19 19 19 20
3 4 4 3 3 2 2 1 1 1 1 1 0 0 0 1 2 2 3 5 6 5 5 4 3 3 6 8 11 15 17 18 18 19 19 19 20 20 20 20 20 19 19
3 3 3 3 2 2 2 2 1 1 1 1 0 0 1 1 2 2 3 5 6 5 4 3 2 3 7 10 12 16 17 18 19 19 19 19 19 20 20 20 20 19 19
3 4 3 3 3 3 2 2 1 1 1 1 0 1 1 1 1 2 2 4 6 5 4 4 3 3 7 10 13 16 15 18 19 19 19 19 19 19 20 20 19 19 19
4 5 4 3 3 3 2 2 1 1 1 1 1 1 1 1 1 2 2 2 3 6 7 4 3 4 8 10 13 14 14 18 19 19 19 19 18 19 19 19 18 18 17
4 5 4 4 3 3 3 2 1 1 1 1 0 0 1 2 2 2 2 2 3 5 7 5 5 6 8 11 15 15 14 19 18 18 19 18 18 18 18 17 17 17 16
5 5 4 4 3 3 3 2 1 1 1 1 1 1 2 2 2 2 2 2 3 4 8 8 6 6 8 9 11 12 13 12 13 17 18 19 18 18 18 17 17 16 15
5 5 4 4 3 3 3 3 2 2 2 2 2 2 2 2 2 2 2 3 3 4 6 10 8 7 8 9 9 9 10 12 11 16 18 19 18 18 17 16 16 15 15
5 4 4 4 3 3 3 2 2 2 1 1 1 2 2 2 3 3 3 3 4 5 4 7 9 8 7 7 9 9 9 8 11 13 16 17 17 17 16 16 16 15 15
5 4 4 3 3 3 3 2 2 1 1 1 1 2 2 2 3 3 4 4 4 5 5 6 7 8 7 7 7 8 9 8 9 11 12 15 15 16 16 16 16 15 14
4 4 4 3 3 3 3 2 2 1 1 1 2 2 2 3 4 4 4 4 4 4 5 6 7 8 8 8 8 7 9 9 8 6 7 9 9 8 10 14 14 14 14
4 4 4 4 3 2 2 2 1 1 1 1 2 2 3 3 4 5 7 7 6 5 6 6 6 8 9 8 8 8 8 9 8 5 7 9 6 7 8 8 13 15 14
4 4 3 3 3 2 3 2 1 0 1 2 2 2 3 3 4 3 6 7 7 9 8 7 8 8 9 8 8 9 9 9 9 8 8 8 6 7 8 10 15 15 14
3 3 3 3 3 2 2 2 1 0 1 1 2 2 2 3 3 4 4 5 5 6 7 5 5 7 7 7 7 8 9 9 8 5 5 6 6 6 8 8 12 14 15
3 3 3 3 2 2 2 1 1 1 0 1 2 2 2 3 5 6 4 5 6 5 7 8 9 9 11 12 10 6 7 7 8 6 4 3 5 7 6 5 8 13 14
3 3 2 2 2 2 2 1 0 1 1 1 2 2 3 4 5 6 4 4 6 6 6 7 7 8 7 8 10 6 5 6 7 5 4 4 5 6 5 4 4 7 9
Wind_Direction
104 89 82 68 57 51 32 11 22 32 31 23 15 23 23 24 41 64 76 54 32 6 353 350 349 349 349 345 341 337 332 327 324 321 317 312 309 306 305 305 303 299 295
97 92 83 70 57 41 23 19 34 36 35 27 19 23 21 22 31 46 73 54 25 4 359 354 349 345 342 339 337 334 332 329 324 321 318 314 309 307 304 302 302 298 296
97 94 89 76 54 38 28 23 29 30 27 26 22 19 20 23 21 29 39 42 28 17 3 350 343 340 338 336 334 331 330 327 324 320 317 315 312 308 304 301 298 297 296
101 93 94 85 54 39 35 38 32 32 18 17 10 358 7 7 9 24 29 20 24 17 3 348 339 336 334 334 333 330 328 326 324 321 316 313 312 309 306 302 299 296 296
104 96 95 86 67 50 42 33 39 35 25 13 356 345 355 350 345 16 23 17 15 7 355 345 340 335 332 332 331 330 326 324 323 323 319 314 311 308 307 305 301 298 297
108 101 98 87 74 77 50 46 48 31 34 2 347 344 323 311 326 9 356 6 3 353 345 337 331 326 329 329 328 328 327 326 324 322 321 316 313 311 308 306 305 300 296
114 103 102 92 80 90 73 50 51 47 27 8 12 345 329 305 335 8 358 351 344 338 336 331 329 326 324 324 324 325 326 328 327 324 322 319 315 314 311 311 310 306 299
118 114 111 112 99 95 67 54 53 46 20 24 21 354 345 342 349 336 329 324 328 338 333 330 331 329 323 323 321 324 324 324 326 325 322 319 316 314 311 310 309 309 307
126 118 116 112 106 110 107 70 66 74 58 360 34 62 47 304 320 312 305 318 324 329 321 324 330 330 327 323 320 322 324 324 324 324 324 320 318 316 314 312 311 310 310
131 129 122 115 112 108 112 104 80 76 97 10 348 22 97 210 309 314 313 317 328 321 315 327 328 321 323 322 321 326 326 325 323 323 323 323 321 319 316 316 314 312 310
137 136 131 125 123 114 113 93 79 70 97 126 14 335 331 329 282 259 294 307 316 306 310 312 315 318 323 323 324 329 330 327 326 324 323 322 321 319 317 316 315 314 311
145 145 141 138 134 127 132 128 117 102 85 81 40 22 311 298 301 295 287 301 304 301 302 299 311 323 329 332 329 329 328 327 325 324 324 322 320 319 318 316 314 313 311
155 163 148 146 142 140 137 130 135 153 135 110 117 303 305 288 292 292 290 298 302 301 298 298 310 332 337 335 327 325 323 322 322 322 321 320 320 319 317 316 313 313 312
159 157 153 151 146 143 141 132 139 161 138 151 222 270 285 295 309 298 286 300 307 303 296 292 305 333 338 328 321 322 322 320 321 321 320 319 318 318 318 319 317 316 315
153 153 155 154 152 149 151 145 162 179 157 184 210 269 281 282 292 290 292 283 287 302 304 302 322 325 331 323 320 321 319 318 319 319 320 320 320 320 320 321 320 319 318
147 153 158 159 158 158 158 156 172 173 158 201 208 279 293 285 286 289 284 282 271 277 288 296 305 311 321 323 323 325 319 319 319 320 321 321 321 322 322 323 322 321 321
150 158 162 159 159 164 161 157 174 170 166 231 248 245 266 274 274 278 277 277 278 276 283 294 300 312 317 318 320 321 320 320 320 322 321 321 323 324 325 323 324 325 325
149 154 153 155 160 161 160 166 184 182 192 225 249 261 275 285 281 280 279 279 280 280 282 296 306 314 313 313 314 317 324 322 320 323 324 323 324 326 329 331 332 332 329
144 146 149 159 165 164 163 170 176 183 205 232 252 266 279 286 289 293 292 290 290 296 293 296 302 306 309 314 317 317 319 319 323 325 326 328 328 330 333 334 333 333 332
145 148 151 157 159 158 157 157 162 177 217 259 264 265 276 280 286 296 297 295 300 304 303 300 300 307 310 312 318 322 323 324 324 326 327 326 327 329 331 331 331 331 333
146 147 148 152 156 161 163 155 165 183 212 270 284 279 279 287 301 304 304 307 308 304 305 303 303 310 314 320 322 320 320 320 317 321 323 324 325 326 327 326 328 330 333
143 147 154 157 161 169 160 154 169 182 214 259 280 290 291 287 300 312 314 312 307 298 300 299 299 303 306 311 317 320 320 321 317 325 326 317 319 317 322 326 327 331 334
144 149 157 156 163 171 164 166 182 196 225 249 267 288 303 305 312 307 309 311 305 298 291 288 292 296 301 308 313 314 315 314 304 311 319 308 315 313 318 323 329 334 338
147 154 160 162 165 176 176 174 172 171 234 258 265 272 284 295 302 308 311 310 301 300 297 295 287 293 302 308 306 305 304 306 299 308 325 306 310 311 314 317 326 334 339
148 153 156 160 165 185 185 167 109 145 233 283 290 300 296 293 304 319 320 313 313 313 316 312 312 314 320 324 326 323 322 323 317 316 337 319 312 317 311 308 322 332 337
144 147 153 160 164 178 181 168 113 159 244 290 305 310 309 317 319 326 319 311 312 315 325 329 327 327 328 331 336 332 320 318 317 316 337 334 319 330 323 308 319 331 335
Height
1518 1519 1520 1521 1522 1522 1523 1523 1524 1524 1524 1524 1524 1524 1524 1523 1523 1523 1522 1522 1521 1520 1520 1519 1518 1517 1516 1515 1514 1512 1511 1510 1509 1507 1506 1505 1503 1502 1500 1499 1498 1497 1496
1516 1517 1518 1520 1521 1521 1522 1522 1523 1523 1523 1523 1523 1523 1522 1522 1521 1521 1521 1520 1519 1518 1518 1517 1516 1515 1513 1512 1511 1509 1508 1506 1505 1503 1502 1500 1499 1497 1496 1494 1493 1492 1491
1515 1516 1517 1518 1519 1520 1521 1521 1521 1521 1522 1522 1521 1521 1521 1520 1520 1519 1519 1518 1517 1517 1516 1515 1514 1512 1511 1510 1508 1506 1505 1503 1501 1499 1498 1496 1494 1493 1491 1490 1488 1487 1486
1513 1514 1516 1517 1518 1518 1519 1520 1520 1520 1520 1520 1519 1519 1519 1518 1518 1518 1517 1516 1516 1515 1514 1513 1511 1510 1508 1507 1505 1503 1501 1499 1498 1496 1494 1492 1490 1488 1486 1485 1483 1482 1480
1512 1513 1514 1515 1516 1517 1518 1518 1518 1519 1519 1518 1518 1518 1517 1517 1517 1516 1515 1515 1514 1513 1512 1510 1509 1507 1506 1504 1502 1500 1498 1496 1494 1492 1489 1487 1485 1484 1482 1480 1478 1476 1475
1510 1512 1513 1514 1515 1515 1516 1517 1517 1517 1517 1517 1517 1516 1516 1515 1515 1515 1514 1513 1512 1511 1510 1508 1507 1505 1503 1501 1499 1497 1495 1493 1490 1488 1485 1483 1481 1479 1477 1475 1472 1471 1469
1509 1510 1511 1512 1513 1514 1515 1515 1516 1516 1516 1516 1515 1514 1514 1514 1514 1513 1513 1512 1511 1509 1508 1506 1504 1502 1500 1498 1496 1494 1491 1489 1487 1484 1481 1479 1476 1474 1472 1470 1467 1465 1463
1507 1509 1510 1511 1512 1513 1513 1514 1514 1515 1515 1515 1514 1513 1512 1513 1512 1512 1511 1510 1509 1507 1506 1504 1502 1500 1498 1495 1493 1491 1488 1485 1483 1480 1477 1474 1472 1469 1467 1464 1462 1460 1458
1506 1507 1509 1510 1511 1511 1512 1512 1513 1513 1513 1514 1514 1514 1513 1511 1510 1509 1509 1508 1507 1505 1504 1502 1500 1497 1495 1493 1490 1487 1485 1482 1479 1476 1472 1470 1467 1464 1462 1459 1457 1455 1452
1504 1506 1507 1508 1509 1510 1510 1511 1511 1512 1512 1512 1512 1512 1513 1511 1510 1507 1506 1506 1505 1503 1501 1499 1497 1495 1492 1490 1487 1484 1481 1478 1475 1471 1468 1465 1462 1459 1457 1454 1452 1449 1447
1502 1504 1505 1507 1508 1508 1509 1509 1510 1510 1510 1510 1510 1510 1510 1510 1509 1507 1503 1502 1501 1500 1498 1496 1494 1492 1489 1487 1484 1481 1478 1475 1471 1467 1464 1461 1457 1455 1452 1449 1447 1444 1441
1500 1502 1503 1504 1506 1506 1507 1508 1508 1508 1508 1508 1508 1508 1508 1507 1507 1505 1502 1499 1497 1496 1495 1493 1491 1489 1486 1484 1481 1478 1474 1471 1467 1463 1460 1456 1453 1450 1447 1444 1441 1438 1436
1497 1499 1501 1502 1503 1504 1505 1506 1506 1506 1506 1506 1506 1506 1506 1505 1505 1504 1501 1498 1494 1492 1491 1490 1488 1486 1483 1480 1477 1474 1470 1467 1463 1459 1456 1452 1449 1445 1442 1439 1435 1433 1430
1495 1497 1499 1500 1501 1502 1503 1503 1504 1504 1504 1504 1504 1504 1503 1503 1502 1501 1499 1497 1492 1488 1487 1486 1484 1482 1479 1476 1473 1470 1466 1462 1459 1455 1452 1448 1445 1441 1437 1434 1430 1427 1424
1493 1495 1496 1497 1498 1499 1500 1501 1501 1501 1501 1501 1501 1501 1500 1500 1499 1498 1497 1496 1493 1487 1483 1481 1480 1478 1475 1472 1469 1465 1462 1458 1455 1451 1448 1444 1440 1437 1433 1429 1426 1422 1419
1490 1492 1493 1495 1496 1497 1497 1498 1499 1499 1499 1499 1499 1498 1497 1497 1496 1495 1494 1493 1491 1488 1482 1478 1476 1474 1471 1468 1465 1461 1457 1454 1450 1447 1443 1440 1436 1432 1428 1425 1422 1418 1415
1487 1489 1491 1492 1493 1494 1495 1495 1496 1496 1496 1496 1496 1495 1494 1494 1493 1492 1490 1489 1487 1485 1479 1474 1473 1470 1467 1464 1460 1457 1453 1449 1446 1443 1439 1436 1432 1428 1424 1421 1418 1414 1411
1485 1486 1488 1489 1490 1491 1492 1493 1493 1493 1493 1493 1493 1492 1491 1491 1490 1488 1487 1485 1483 1481 1478 1471 1468 1466 1463 1460 1456 1453 1449 1446 1442 1438 1435 1432 1428 1424 1421 1417 1414 1411 1408
1481 1483 1485 1486 1487 1488 1489 1490 1490 1490 1490 1490 1490 1489 1488 1487 1486 1485 1483 1481 1479 1477 1474 1470 1465 1462 1459 1456 1452 1449 1445 1441 1438 1435 1431 1428 1424 1421 1417 1414 1410 1407 1404
1478 1480 1482 1483 1485 1486 1486 1487 1487 1487 1487 1487 1486 1486 1485 1484 1483 1481 1479 1477 1475 1473 1470 1467 1463 1459 1456 1453 1450 1445 1440 1437 1434 1431 1427 1424 1421 1417 1414 1410 1407 1404 1401
1476 1477 1479 1480 1482 1483 1483 1484 1484 1484 1484 1483 1483 1482 1481 1481 1479 1478 1476 1474 1471 1469 1466 1463 1460 1456 1453 1450 1446 1443 1438 1434 1430 1428 1424 1421 1417 1414 1410 1407 1404 1401 1398
1473 1475 1476 1477 1479 1480 1481 1481 1481 1481 1480 1480 1479 1479 1478 1477 1475 1474 1472 1470 1469 1466 1463 1460 1457 1454 1451 1448 1444 1441 1437 1432 1427 1425 1421 1417 1415 1411 1408 1404 1401 1399 1396
1470 1472 1473 1474 1476 1477 1478 1478 1478 1478 1477 1477 1476 1475 1474 1473 1472 1470 1468 1467 1465 1463 1461 1458 1455 1452 1448 1445 1442 1438 1435 1431 1427 1423 1419 1414 1411 1408 1405 1402 1399 1397 1394
1467 1469 1470 1471 1473 1474 1475 1475 1475 1474 1474 1474 1473 1472 1471 1470 1469 1467 1465 1463 1461 1459 1457 1455 1452 1449 1446 1443 1440 1437 1433 1429 1424 1421 1418 1412 1408 1406 1403 1400 1397 1394 1391
1464 1466 1467 1468 1469 1470 1471 1472 1471 1471 1471 1471 1470 1469 1468 1467 1465 1464 1462 1460 1458 1455 1454 1451 1449 1446 1444 1441 1438 1434 1430 1426 1421 1417 1416 1412 1407 1403 1400 1398 1395 1392 1389
1461 1463 1464 1465 1467 1468 1468 1469 1469 1468 1468 1467 1467 1466 1465 1464 1463 1461 1459 1457 1454 1452 1450 1447 1445 1443 1440 1437 1435 1432 1428 1424 1420 1416 1413 1410 1406 1403 1398 1395 1393 1390 1387